Location: Newark
(7.6833°N, 5.0167°W)
Time: 03:03:41
(UTC+00:00)

N. Korean satellite - Visible Passes

Search period start: 26 January 2020 00:00
Search period end: 05 February 2020 00:00
Orbit: 454 x 507 km, 97.2° (Epoch: 25 January)

Date Brightness Start Highest point End Pass type
(mag) Time Alt. Az. Time Alt. Az. Time Alt. Az.
26 Jan 8.2 05:29:15 10° NNE 05:32:39 38° E 05:36:06 10° S visible
27 Jan 9.9 05:05:01 10° ENE 05:07:12 15° E 05:09:25 10° SE visible
28 Jan 7.2 06:11:32 10° N 06:14:55 37° WNW 06:18:21 10° SSW visible
29 Jan 6.8 05:45:50 10° NNE 05:49:29 78° E 05:53:11 10° S visible
30 Jan 8.8 05:20:52 10° NE 05:24:03 28° E 05:27:16 10° SSE visible
31 Jan 10.2 04:57:24 10° E 04:58:36 11° E 04:59:48 10° ESE visible
01 Feb 6.8 06:02:44 10° N 06:06:19 52° W 06:09:55 10° SSW visible
02 Feb 7.4 05:37:16 10° NNE 05:40:52 54° E 05:44:31 10° S visible
03 Feb 9.4 05:12:36 10° NE 05:15:26 21° E 05:18:16 10° SSE visible
